📊 Raw Sensor Data
Showing records 42376 to 42400 of 84,999 total
| ID | Distance (ft) | Battery V | Battery A | Int Temp (°F) | Int Humid (%) | Ext Temp (°F) | Solar V | RSSI | SNR | Time Stamp |
|---|---|---|---|---|---|---|---|---|---|---|
| 42636 | 15.6 | 4.01 | 0 | 78 | 43 | 78 | 5.10 | -75 | 8 | 06/05/2025 11:45 AM |
| 42635 | 15.6 | 4.01 | 0 | 77 | 43 | 78 | 5.10 | -69 | 7 | 06/05/2025 11:30 AM |
| 42634 | 15.6 | 4.01 | 0 | 76 | 43 | 77 | 5.10 | -69 | 8 | 06/05/2025 11:15 AM |
| 42633 | 15.5 | 4.01 | 0 | 75 | 43 | 77 | 5.10 | -68 | 8 | 06/05/2025 11:00 AM |
| 42632 | 15.6 | 4.02 | 0 | 74 | 43 | 75 | 5.10 | -71 | 7 | 06/05/2025 10:45 AM |
| 42631 | 15.6 | 4.01 | 0 | 74 | 43 | 76 | 5.10 | -72 | 8 | 06/05/2025 10:30 AM |
| 42630 | 15.6 | 4.01 | 0 | 73 | 42 | 74 | 5.10 | -80 | 8 | 06/05/2025 10:15 AM |
| 42629 | 15.6 | 4.05 | 0 | 72 | 43 | 76 | 5.10 | -77 | 8 | 06/05/2025 10:00 AM |
| 42628 | 15.5 | 4.01 | 0 | 71 | 43 | 74 | 5.10 | -78 | 7 | 06/05/2025 09:45 AM |
| 42627 | 15.5 | 4.14 | 0 | 70 | 43 | 72 | 5.10 | -79 | 8 | 06/05/2025 09:30 AM |
| 42626 | 15.6 | 4.01 | 0 | 69 | 43 | 72 | 5.10 | -77 | 8 | 06/05/2025 09:15 AM |
| 42625 | 15.5 | 4.01 | 0 | 68 | 43 | 71 | 5.10 | -77 | 8 | 06/05/2025 09:00 AM |
| 42624 | 15.6 | 4.01 | 0 | 67 | 43 | 70 | 5.10 | -79 | 8 | 06/05/2025 08:45 AM |
| 42623 | 15.5 | 4.01 | 0 | 66 | 43 | 71 | 5.10 | -78 | 7 | 06/05/2025 08:30 AM |
| 42622 | 15.5 | 4.03 | 0 | 65 | 43 | 68 | 5.10 | -78 | 8 | 06/05/2025 08:15 AM |
| 42621 | 15.5 | 4.01 | 0 | 64 | 43 | 67 | 5.10 | -78 | 7 | 06/05/2025 08:00 AM |
| 42620 | 15.5 | 4.01 | 0 | 63 | 42 | 69 | 5.10 | -77 | 7 | 06/05/2025 07:45 AM |
| 42619 | 15.5 | 4.08 | 38 | 61 | 42 | 66 | 4.50 | -78 | 8 | 06/05/2025 07:30 AM |
| 42618 | 15.5 | 4.02 | 27 | 60 | 42 | 64 | 4.50 | -75 | 8 | 06/05/2025 07:15 AM |
| 42617 | 15.4 | 3.99 | -6 | 58 | 41 | 63 | 4.50 | -78 | 8 | 06/05/2025 07:00 AM |
| 42616 | 15.4 | 3.99 | -12 | 57 | 41 | 61 | 4.50 | -77 | 8 | 06/05/2025 06:45 AM |
| 42615 | 15.3 | 3.96 | 6 | 55 | 42 | 59 | 4.50 | -77 | 8 | 06/05/2025 06:30 AM |
| 42614 | 15.3 | 4.00 | 0 | 54 | 42 | 57 | 4.50 | -76 | 8 | 06/05/2025 06:15 AM |
| 42613 | 15.3 | 3.93 | -6 | 53 | 42 | 55 | 4.50 | -76 | 8 | 06/05/2025 06:00 AM |
| 42612 | 15.3 | 3.98 | -10 | 53 | 42 | 54 | 3.20 | -76 | 8 | 06/05/2025 05:45 AM |